Time,TemperatureF,DewpointF,PressureIn,WindDirection,WindDirectionDegrees,WindSpeedMPH,WindSpeedGustMPH,Humidity,HourlyPrecipIn,Conditions,Clouds,dailyrainin,SoftwareType,DateUTC
2013-02-24 00:00:00,41.8,40.1,29.85,SE,135,0.0,2.0,94,0.00,,,0.00,HR-IXPWINDi_r2_v1.2.,2013-02-24 05:00:00,
2013-02-24 00:05:00,41.6,40.0,29.85,SE,135,0.0,2.0,94,0.00,,,0.00,HR-IXPWINDi_r2_v1.2.,2013-02-24 05:05:00,
2013-02-24 00:10:00,41.6,40.0,29.85,SE,135,1.0,1.0,94,0.00,,,0.00,HR-IXPWINDi_r2_v1.2.,2013-02-24 05:10:00,
2013-02-24 00:15:00,41.6,40.0,29.86,SE,135,0.0,2.0,94,0.00,,,0.00,HR-IXPWINDi_r2_v1.2.,2013-02-24 05:15:00,
2013-02-24 00:20:00,41.3,39.4,29.86,SE,135,0.0,2.0,93,0.00,,,0.00,HR-IXPWINDi_r2_v1.2.,2013-02-24 05:20:00,
2013-02-24 00:26:00,41.3,39.7,29.85,SE,135,0.0,1.0,94,0.00,,,0.00,HR-IXPWINDi_r2_v1.2.,2013-02-24 05:26:00,
2013-02-24 00:31:00,41.4,39.8,29.85,SE,135,0.0,1.0,94,0.00,,,0.00,HR-IXPWINDi_r2_v1.2.,2013-02-24 05:31:00,
2013-02-24 00:36:00,41.4,40.0,29.85,SE,135,0.0,2.0,95,0.00,,,0.00,HR-IXPWINDi_r2_v1.2.,2013-02-24 05:36:00,
2013-02-24 00:41:00,41.3,39.7,29.85,SE,130,0.0,2.0,94,0.00,,,0.00,HR-IXPWINDi_r2_v1.2.,2013-02-24 05:41:00,
2013-02-24 00:46:00,41.3,39.7,29.85,ESE,113,0.0,2.0,94,0.00,,,0.00,HR-IXPWINDi_r2_v1.2.,2013-02-24 05:46:00,
2013-02-24 00:51:00,41.3,39.7,29.85,ESE,113,0.0,2.0,94,0.00,,,0.00,HR-IXPWINDi_r2_v1.2.,2013-02-24 05:51:00,
2013-02-24 00:57:00,41.3,39.9,29.85,ESE,119,0.0,3.0,95,0.00,,,0.00,HR-IXPWINDi_r2_v1.2.,2013-02-24 05:57:00,
2013-02-24 01:02:00,41.4,40.0,29.86,ESE,119,0.0,3.0,95,0.00,,,0.00,HR-IXPWINDi_r2_v1.2.,2013-02-24 06:02:00,
2013-02-24 01:07:00,41.3,39.7,29.86,ESE,119,0.0,2.0,94,0.00,,,0.00,HR-IXPWINDi_r2_v1.2.,2013-02-24 06:07:00,
2013-02-24 01:12:00,41.0,39.4,29.86,ENE,62,2.0,3.0,94,0.00,,,0.00,HR-IXPWINDi_r2_v1.2.,2013-02-24 06:12:00,
2013-02-24 01:17:00,41.4,40.0,29.86,SE,138,2.0,3.0,95,0.00,,,0.00,HR-IXPWINDi_r2_v1.2.,2013-02-24 06:17:00,
2013-02-24 01:23:00,41.9,40.8,29.86,SSE,167,0.0,3.0,96,0.00,,,0.00,HR-IXPWINDi_r2_v1.2.,2013-02-24 06:23:00,
2013-02-24 01:28:00,42.4,41.0,29.86,NW,315,4.0,4.0,95,0.00,,,0.00,HR-IXPWINDi_r2_v1.2.,2013-02-24 06:28:00,
2013-02-24 01:33:00,43.5,42.1,29.86,WNW,296,0.0,4.0,95,0.00,,,0.00,HR-IXPWINDi_r2_v1.2.,2013-02-24 06:33:00,
2013-02-24 01:38:00,44.2,42.2,29.86,NW,309,0.0,4.0,93,0.00,,,0.00,HR-IXPWINDi_r2_v1.2.,2013-02-24 06:38:00,
2013-02-24 01:44:00,45.1,42.9,29.87,WNW,300,2.0,3.0,92,0.00,,,0.00,HR-IXPWINDi_r2_v1.2.,2013-02-24 06:44:00,
2013-02-24 01:49:00,46.1,43.0,29.87,NW,305,0.0,4.0,89,0.00,,,0.00,HR-IXPWINDi_r2_v1.2.,2013-02-24 06:49:00,
2013-02-24 01:54:00,46.7,43.0,29.86,SSW,202,0.0,4.0,87,0.00,,,0.00,HR-IXPWINDi_r2_v1.2.,2013-02-24 06:54:00,
2013-02-24 01:59:00,47.4,43.1,29.87,SSW,201,1.0,4.0,85,0.00,,,0.00,HR-IXPWINDi_r2_v1.2.,2013-02-24 06:59:00,
2013-02-24 02:04:00,48.1,42.8,29.86,WNW,294,1.0,6.0,82,0.00,,,0.00,HR-IXPWINDi_r2_v1.2.,2013-02-24 07:04:00,
2013-02-24 02:09:00,48.7,42.8,29.86,SSW,192,0.0,7.0,80,0.00,,,0.00,HR-IXPWINDi_r2_v1.2.,2013-02-24 07:09:00,
2013-02-24 02:15:00,49.0,42.7,29.86,NW,321,0.0,7.0,79,0.00,,,0.00,HR-IXPWINDi_r2_v1.2.,2013-02-24 07:15:00,
2013-02-24 02:20:00,49.0,42.4,29.86,SW,224,0.0,4.0,78,0.00,,,0.00,HR-IXPWINDi_r2_v1.2.,2013-02-24 07:20:00,
2013-02-24 02:25:00,48.9,42.3,29.86,NW,317,2.0,2.0,78,0.00,,,0.00,HR-IXPWINDi_r2_v1.2.,2013-02-24 07:25:00,
2013-02-24 02:30:00,48.9,42.0,29.85,NW,309,0.0,3.0,77,0.00,,,0.00,HR-IXPWINDi_r2_v1.2.,2013-02-24 07:30:00,
2013-02-24 02:36:00,48.8,41.9,29.85,SSE,161,0.0,3.0,77,0.00,,,0.00,HR-IXPWINDi_r2_v1.2.,2013-02-24 07:36:00,
2013-02-24 02:41:00,48.6,41.7,29.84,South,172,0.0,1.0,77,0.00,,,0.00,HR-IXPWINDi_r2_v1.2.,2013-02-24 07:41:00,
2013-02-24 02:46:00,48.3,41.7,29.84,South,172,0.0,1.0,78,0.00,,,0.00,HR-IXPWINDi_r2_v1.2.,2013-02-24 07:46:00,
2013-02-24 02:51:00,47.8,41.6,29.84,South,172,0.0,1.0,79,0.00,,,0.00,HR-IXPWINDi_r2_v1.2.,2013-02-24 07:51:00,
2013-02-24 02:56:00,47.2,41.6,29.85,South,172,0.0,1.0,81,0.00,,,0.00,HR-IXPWINDi_r2_v1.2.,2013-02-24 07:56:00,
2013-02-24 03:01:00,46.5,40.9,29.84,South,172,0.0,1.0,81,0.00,,,0.00,HR-IXPWINDi_r2_v1.2.,2013-02-24 08:01:00,
2013-02-24 03:07:00,46.1,40.9,29.84,WNW,300,2.0,4.0,82,0.00,,,0.00,HR-IXPWINDi_r2_v1.2.,2013-02-24 08:07:00,
2013-02-24 03:12:00,46.1,40.5,29.84,WNW,300,0.0,4.0,81,0.00,,,0.00,HR-IXPWINDi_r2_v1.2.,2013-02-24 08:12:00,
2013-02-24 03:17:00,46.1,40.5,29.85,NW,306,4.0,5.0,81,0.00,,,0.00,HR-IXPWINDi_r2_v1.2.,2013-02-24 08:17:00,
2013-02-24 03:22:00,46.3,40.4,29.85,NW,304,3.0,5.0,80,0.00,,,0.00,HR-IXPWINDi_r2_v1.2.,2013-02-24 08:22:00,
2013-02-24 03:27:00,46.8,40.3,29.85,WNW,302,3.0,10.0,78,0.00,,,0.00,HR-IXPWINDi_r2_v1.2.,2013-02-24 08:27:00,
2013-02-24 03:32:00,46.9,40.4,29.85,NW,317,3.0,10.0,78,0.00,,,0.00,HR-IXPWINDi_r2_v1.2.,2013-02-24 08:32:00,
2013-02-24 03:38:00,46.8,40.3,29.85,NW,325,2.0,6.0,78,0.00,,,0.00,HR-IXPWINDi_r2_v1.2.,2013-02-24 08:38:00,
2013-02-24 03:43:00,46.8,39.9,29.85,NW,317,0.0,6.0,77,0.00,,,0.00,HR-IXPWINDi_r2_v1.2.,2013-02-24 08:43:00,
2013-02-24 03:48:00,47.1,39.9,29.84,NNW,340,1.0,6.0,76,0.00,,,0.00,HR-IXPWINDi_r2_v1.2.,2013-02-24 08:48:00,
2013-02-24 03:53:00,47.0,39.8,29.85,NW,325,3.0,6.0,76,0.00,,,0.00,HR-IXPWINDi_r2_v1.2.,2013-02-24 08:53:00,
2013-02-24 03:59:00,47.0,39.4,29.85,NW,306,2.0,7.0,75,0.00,,,0.00,HR-IXPWINDi_r2_v1.2.,2013-02-24 08:59:00,
2013-02-24 04:04:00,46.8,39.6,29.85,NW,321,0.0,7.0,76,0.00,,,0.00,HR-IXPWINDi_r2_v1.2.,2013-02-24 09:04:00,
2013-02-24 04:09:00,46.7,38.8,29.85,NW,305,4.0,6.0,74,0.00,,,0.00,HR-IXPWINDi_r2_v1.2.,2013-02-24 09:09:00,
2013-02-24 04:14:00,46.5,38.6,29.85,NW,313,1.0,6.0,74,0.00,,,0.00,HR-IXPWINDi_r2_v1.2.,2013-02-24 09:14:00,
2013-02-24 04:19:00,46.4,38.2,29.85,NW,314,2.0,6.0,73,0.00,,,0.00,HR-IXPWINDi_r2_v1.2.,2013-02-24 09:19:00,
2013-02-24 04:24:00,46.2,38.0,29.86,East,98,1.0,6.0,73,0.00,,,0.00,HR-IXPWINDi_r2_v1.2.,2013-02-24 09:24:00,
2013-02-24 04:30:00,46.0,37.8,29.86,NW,305,0.0,6.0,73,0.00,,,0.00,HR-IXPWINDi_r2_v1.2.,2013-02-24 09:30:00,
2013-02-24 04:35:00,46.0,37.8,29.86,NW,304,0.0,5.0,73,0.00,,,0.00,HR-IXPWINDi_r2_v1.2.,2013-02-24 09:35:00,
2013-02-24 04:40:00,45.8,37.2,29.87,NW,322,3.0,7.0,72,0.00,,,0.00,HR-IXPWINDi_r2_v1.2.,2013-02-24 09:40:00,
2013-02-24 04:45:00,45.4,37.6,29.87,NW,313,0.0,7.0,74,0.00,,,0.00,HR-IXPWINDi_r2_v1.2.,2013-02-24 09:45:00,
2013-02-24 04:50:00,45.2,37.0,29.86,NW,309,3.0,6.0,73,0.00,,,0.00,HR-IXPWINDi_r2_v1.2.,2013-02-24 09:50:00,
2013-02-24 04:56:00,44.9,36.7,29.87,NNE,13,1.0,6.0,73,0.00,,,0.00,HR-IXPWINDi_r2_v1.2.,2013-02-24 09:56:00,
2013-02-24 05:01:00,44.4,36.6,29.87,WNW,303,3.0,8.0,74,0.00,,,0.00,HR-IXPWINDi_r2_v1.2.,2013-02-24 10:01:00,
2013-02-24 05:06:00,43.9,36.5,29.87,NNW,344,1.0,8.0,75,0.00,,,0.00,HR-IXPWINDi_r2_v1.2.,2013-02-24 10:06:00,
2013-02-24 05:11:00,43.6,36.5,29.87,North,355,0.0,4.0,76,0.00,,,0.00,HR-IXPWINDi_r2_v1.2.,2013-02-24 10:11:00,
2013-02-24 05:16:00,43.3,36.2,29.88,North,355,0.0,4.0,76,0.00,,,0.00,HR-IXPWINDi_r2_v1.2.,2013-02-24 10:16:00,
2013-02-24 05:22:00,43.1,36.0,29.88,North,355,0.0,4.0,76,0.00,,,0.00,HR-IXPWINDi_r2_v1.2.,2013-02-24 10:22:00,
2013-02-24 05:27:00,43.0,35.9,29.89,WNW,302,0.0,3.0,76,0.00,,,0.00,HR-IXPWINDi_r2_v1.2.,2013-02-24 10:27:00,
2013-02-24 05:32:00,43.0,35.9,29.89,NW,321,3.0,4.0,76,0.00,,,0.00,HR-IXPWINDi_r2_v1.2.,2013-02-24 10:32:00,
2013-02-24 05:37:00,42.8,35.7,29.89,WNW,299,2.0,4.0,76,0.00,,,0.00,HR-IXPWINDi_r2_v1.2.,2013-02-24 10:37:00,
2013-02-24 05:43:00,42.6,35.5,29.89,NW,309,1.0,4.0,76,0.00,,,0.00,HR-IXPWINDi_r2_v1.2.,2013-02-24 10:43:00,
2013-02-24 05:48:00,42.3,35.6,29.90,NW,310,3.0,4.0,77,0.00,,,0.00,HR-IXPWINDi_r2_v1.2.,2013-02-24 10:48:00,
2013-02-24 05:53:00,42.0,34.9,29.90,NW,317,2.0,3.0,76,0.00,,,0.00,HR-IXPWINDi_r2_v1.2.,2013-02-24 10:53:00,
2013-02-24 05:58:00,41.7,35.0,29.90,NW,317,0.0,3.0,77,0.00,,,0.00,HR-IXPWINDi_r2_v1.2.,2013-02-24 10:58:00,
2013-02-24 06:03:00,41.2,34.8,29.90,NW,317,2.0,3.0,78,0.00,,,0.00,HR-IXPWINDi_r2_v1.2.,2013-02-24 11:03:00,
2013-02-24 06:09:00,40.9,34.5,29.91,NW,310,2.0,4.0,78,0.00,,,0.00,HR-IXPWINDi_r2_v1.2.,2013-02-24 11:09:00,
2013-02-24 06:14:00,40.8,34.4,29.91,NW,310,1.0,4.0,78,0.00,,,0.00,HR-IXPWINDi_r2_v1.2.,2013-02-24 11:14:00,
2013-02-24 06:19:00,40.5,34.1,29.91,NW,310,3.0,4.0,78,0.00,,,0.00,HR-IXPWINDi_r2_v1.2.,2013-02-24 11:19:00,
2013-02-24 06:24:00,40.5,33.8,29.92,NW,310,1.0,4.0,77,0.00,,,0.00,HR-IXPWINDi_r2_v1.2.,2013-02-24 11:24:00,
2013-02-24 06:30:00,40.2,33.9,29.92,NW,308,0.0,4.0,78,0.00,,,0.00,HR-IXPWINDi_r2_v1.2.,2013-02-24 11:30:00,
2013-02-24 06:35:00,40.0,33.7,29.92,NW,311,0.0,4.0,78,0.00,,,0.00,HR-IXPWINDi_r2_v1.2.,2013-02-24 11:35:00,
2013-02-24 06:40:00,40.2,33.9,29.92,NW,323,0.0,4.0,78,0.00,,,0.00,HR-IXPWINDi_r2_v1.2.,2013-02-24 11:40:00,
2013-02-24 06:45:00,40.9,33.9,29.92,NW,308,0.0,4.0,76,0.00,,,0.00,HR-IXPWINDi_r2_v1.2.,2013-02-24 11:45:00,
2013-02-24 06:51:00,41.4,34.0,29.92,WNW,300,0.0,5.0,75,0.00,,,0.00,HR-IXPWINDi_r2_v1.2.,2013-02-24 11:51:00,
2013-02-24 06:56:00,41.6,33.9,29.92,NNE,25,0.0,5.0,74,0.00,,,0.00,HR-IXPWINDi_r2_v1.2.,2013-02-24 11:56:00,
2013-02-24 07:01:00,41.6,33.9,29.93,WNW,302,3.0,5.0,74,0.00,,,0.00,HR-IXPWINDi_r2_v1.2.,2013-02-24 12:01:00,
2013-02-24 07:06:00,41.5,33.8,29.93,SSE,150,0.0,5.0,74,0.00,,,0.00,HR-IXPWINDi_r2_v1.2.,2013-02-24 12:06:00,
2013-02-24 07:12:00,41.5,33.5,29.94,WSW,244,0.0,6.0,73,0.00,,,0.00,HR-IXPWINDi_r2_v1.2.,2013-02-24 12:12:00,
2013-02-24 07:17:00,41.4,33.0,29.94,NNE,22,0.0,7.0,72,0.00,,,0.00,HR-IXPWINDi_r2_v1.2.,2013-02-24 12:17:00,
2013-02-24 07:22:00,41.3,32.9,29.95,NNW,327,2.0,7.0,72,0.00,,,0.00,HR-IXPWINDi_r2_v1.2.,2013-02-24 12:22:00,
2013-02-24 07:27:00,41.4,33.0,29.95,NW,308,4.0,7.0,72,0.00,,,0.00,HR-IXPWINDi_r2_v1.2.,2013-02-24 12:27:00,
2013-02-24 07:32:00,41.5,32.8,29.96,East,84,1.0,7.0,71,0.00,,,0.00,HR-IXPWINDi_r2_v1.2.,2013-02-24 12:32:00,
2013-02-24 07:38:00,41.6,32.9,29.96,NNW,333,0.0,14.0,71,0.00,,,0.00,HR-IXPWINDi_r2_v1.2.,2013-02-24 12:38:00,
2013-02-24 07:43:00,41.6,32.5,29.95,WNW,300,0.0,14.0,70,0.00,,,0.00,HR-IXPWINDi_r2_v1.2.,2013-02-24 12:43:00,
2013-02-24 07:48:00,41.6,32.5,29.96,NNW,343,1.0,6.0,70,0.00,,,0.00,HR-IXPWINDi_r2_v1.2.,2013-02-24 12:48:00,
2013-02-24 07:53:00,41.8,32.3,29.96,NNE,22,0.0,6.0,69,0.00,,,0.00,HR-IXPWINDi_r2_v1.2.,2013-02-24 12:53:00,
2013-02-24 07:58:00,42.0,32.5,29.96,North,355,1.0,6.0,69,0.00,,,0.00,HR-IXPWINDi_r2_v1.2.,2013-02-24 12:58:00,
2013-02-24 08:04:00,42.4,32.6,29.97,NW,315,0.0,6.0,68,0.00,,,0.00,HR-IXPWINDi_r2_v1.2.,2013-02-24 13:04:00,
2013-02-24 08:09:00,42.7,32.5,29.97,NNW,346,2.0,5.0,67,0.00,,,0.00,HR-IXPWINDi_r2_v1.2.,2013-02-24 13:09:00,
2013-02-24 08:14:00,42.8,32.6,29.97,SSW,213,3.0,7.0,67,0.00,,,0.00,HR-IXPWINDi_r2_v1.2.,2013-02-24 13:14:00,
2013-02-24 08:19:00,42.9,32.7,29.97,NNW,340,3.0,7.0,67,0.00,,,0.00,HR-IXPWINDi_r2_v1.2.,2013-02-24 13:19:00,
2013-02-24 08:24:00,42.9,31.9,29.97,ESE,120,2.0,7.0,65,0.00,,,0.00,HR-IXPWINDi_r2_v1.2.,2013-02-24 13:24:00,
2013-02-24 08:29:00,42.9,32.3,29.97,NNE,17,1.0,5.0,66,0.00,,,0.00,HR-IXPWINDi_r2_v1.2.,2013-02-24 13:29:00,
2013-02-24 08:34:00,43.0,32.4,29.98,NW,306,2.0,5.0,66,0.00,,,0.00,HR-IXPWINDi_r2_v1.2.,2013-02-24 13:34:00,
2013-02-24 08:40:00,43.0,32.4,29.98,NW,304,2.0,5.0,66,0.00,,,0.00,HR-IXPWINDi_r2_v1.2.,2013-02-24 13:40:00,
2013-02-24 08:45:00,43.1,32.1,29.98,NW,325,4.0,8.0,65,0.00,,,0.00,HR-IXPWINDi_r2_v1.2.,2013-02-24 13:45:00,
2013-02-24 08:50:00,43.4,32.4,29.98,South,177,0.0,8.0,65,0.00,,,0.00,HR-IXPWINDi_r2_v1.2.,2013-02-24 13:50:00,
2013-02-24 08:55:00,43.4,32.4,29.99,WNW,298,2.0,7.0,65,0.00,,,0.00,HR-IXPWINDi_r2_v1.2.,2013-02-24 13:55:00,
2013-02-24 09:00:00,43.6,32.2,29.99,NW,309,2.0,7.0,64,0.00,,,0.00,HR-IXPWINDi_r2_v1.2.,2013-02-24 14:00:00,
2013-02-24 09:05:00,43.7,31.9,29.98,NW,323,3.0,6.0,63,0.00,,,0.00,HR-IXPWINDi_r2_v1.2.,2013-02-24 14:05:00,
2013-02-24 09:10:00,43.9,31.7,29.98,NW,305,3.0,8.0,62,0.00,,,0.00,HR-IXPWINDi_r2_v1.2.,2013-02-24 14:10:00,
2013-02-24 09:16:00,44.1,31.5,29.98,NNW,327,0.0,8.0,61,0.00,,,0.00,HR-IXPWINDi_r2_v1.2.,2013-02-24 14:16:00,
2013-02-24 09:21:00,44.1,31.5,29.98,NW,322,2.0,8.0,61,0.00,,,0.00,HR-IXPWINDi_r2_v1.2.,2013-02-24 14:21:00,
2013-02-24 09:26:00,44.3,30.8,29.98,SSW,195,1.0,6.0,59,0.00,,,0.00,HR-IXPWINDi_r2_v1.2.,2013-02-24 14:26:00,
2013-02-24 09:31:00,44.5,31.0,29.98,NW,322,2.0,9.0,59,0.00,,,0.00,HR-IXPWINDi_r2_v1.2.,2013-02-24 14:31:00,
2013-02-24 09:36:00,44.9,31.8,29.98,West,278,1.0,9.0,60,0.00,,,0.00,HR-IXPWINDi_r2_v1.2.,2013-02-24 14:36:00,
2013-02-24 09:41:00,45.4,31.5,29.98,NW,309,5.0,7.0,58,0.00,,,0.00,HR-IXPWINDi_r2_v1.2.,2013-02-24 14:41:00,
2013-02-24 09:46:00,45.6,30.8,29.99,SW,232,2.0,8.0,56,0.00,,,0.00,HR-IXPWINDi_r2_v1.2.,2013-02-24 14:46:00,
2013-02-24 09:51:00,45.5,30.2,29.98,NW,307,0.0,8.0,55,0.00,,,0.00,HR-IXPWINDi_r2_v1.2.,2013-02-24 14:51:00,
2013-02-24 09:57:00,45.5,30.2,29.98,NW,321,7.0,8.0,55,0.00,,,0.00,HR-IXPWINDi_r2_v1.2.,2013-02-24 14:57:00,
2013-02-24 10:02:00,45.6,29.4,29.98,WNW,299,3.0,9.0,53,0.00,,,0.00,HR-IXPWINDi_r2_v1.2.,2013-02-24 15:02:00,
2013-02-24 10:07:00,45.6,29.9,29.98,WNW,298,4.0,10.0,54,0.00,,,0.00,HR-IXPWINDi_r2_v1.2.,2013-02-24 15:07:00,
2013-02-24 10:12:00,45.5,29.8,29.98,NW,320,3.0,10.0,54,0.00,,,0.00,HR-IXPWINDi_r2_v1.2.,2013-02-24 15:12:00,
2013-02-24 10:17:00,45.8,29.2,29.98,NW,304,2.0,9.0,52,0.00,,,0.00,HR-IXPWINDi_r2_v1.2.,2013-02-24 15:17:00,
2013-02-24 10:23:00,46.1,30.4,29.98,WNW,293,3.0,8.0,54,0.00,,,0.00,HR-IXPWINDi_r2_v1.2.,2013-02-24 15:23:00,
2013-02-24 10:28:00,46.1,29.9,29.98,NW,316,2.0,9.0,53,0.00,,,0.00,HR-IXPWINDi_r2_v1.2.,2013-02-24 15:28:00,
2013-02-24 10:33:00,46.1,29.4,29.97,WNW,297,1.0,9.0,52,0.00,,,0.00,HR-IXPWINDi_r2_v1.2.,2013-02-24 15:33:00,
2013-02-24 10:38:00,46.2,29.5,29.97,NNW,329,1.0,7.0,52,0.00,,,0.00,HR-IXPWINDi_r2_v1.2.,2013-02-24 15:38:00,
2013-02-24 10:44:00,46.8,30.1,29.97,NW,317,3.0,8.0,52,0.00,,,0.00,HR-IXPWINDi_r2_v1.2.,2013-02-24 15:44:00,
2013-02-24 10:49:00,46.9,29.2,29.97,West,274,1.0,8.0,50,0.00,,,0.00,HR-IXPWINDi_r2_v1.2.,2013-02-24 15:49:00,
2013-02-24 10:54:00,46.9,29.7,29.97,East,83,0.0,7.0,51,0.00,,,0.00,HR-IXPWINDi_r2_v1.2.,2013-02-24 15:54:00,
2013-02-24 10:59:00,47.0,29.8,29.97,NW,324,1.0,7.0,51,0.00,,,0.00,HR-IXPWINDi_r2_v1.2.,2013-02-24 15:59:00,
2013-02-24 11:04:00,47.3,29.6,29.97,WNW,298,5.0,14.0,50,0.00,,,0.00,HR-IXPWINDi_r2_v1.2.,2013-02-24 16:04:00,
2013-02-24 11:10:00,47.4,30.6,29.97,NNE,26,3.0,14.0,52,0.00,,,0.00,HR-IXPWINDi_r2_v1.2.,2013-02-24 16:10:00,
2013-02-24 11:15:00,47.6,29.9,29.97,WNW,301,2.0,8.0,50,0.00,,,0.00,HR-IXPWINDi_r2_v1.2.,2013-02-24 16:15:00,
2013-02-24 11:20:00,47.7,29.9,29.97,North,9,4.0,8.0,50,0.00,,,0.00,HR-IXPWINDi_r2_v1.2.,2013-02-24 16:20:00,
2013-02-24 11:25:00,48.1,29.3,29.97,NW,323,4.0,8.0,48,0.00,,,0.00,HR-IXPWINDi_r2_v1.2.,2013-02-24 16:25:00,
2013-02-24 11:30:00,48.4,29.1,29.97,North,9,5.0,8.0,47,0.00,,,0.00,HR-IXPWINDi_r2_v1.2.,2013-02-24 16:30:00,
2013-02-24 11:36:00,48.5,29.7,29.98,ENE,57,3.0,9.0,48,0.00,,,0.00,HR-IXPWINDi_r2_v1.2.,2013-02-24 16:36:00,
2013-02-24 11:41:00,48.3,29.0,29.97,NNE,20,4.0,9.0,47,0.00,,,0.00,HR-IXPWINDi_r2_v1.2.,2013-02-24 16:41:00,
2013-02-24 11:46:00,48.6,30.3,29.97,NW,320,7.0,9.0,49,0.00,,,0.00,HR-IXPWINDi_r2_v1.2.,2013-02-24 16:46:00,
2013-02-24 11:51:00,48.8,29.4,29.97,South,175,0.0,7.0,47,0.00,,,0.00,HR-IXPWINDi_r2_v1.2.,2013-02-24 16:51:00,
2013-02-24 11:56:00,49.1,29.2,29.97,NNW,344,1.0,8.0,46,0.00,,,0.00,HR-IXPWINDi_r2_v1.2.,2013-02-24 16:56:00,
2013-02-24 12:01:00,49.6,29.6,29.96,NNE,12,3.0,8.0,46,0.00,,,0.00,HR-IXPWINDi_r2_v1.2.,2013-02-24 17:01:00,
2013-02-24 12:07:00,49.9,29.4,29.96,WSW,242,1.0,8.0,45,0.00,,,0.00,HR-IXPWINDi_r2_v1.2.,2013-02-24 17:07:00,
2013-02-24 12:12:00,50.4,28.7,29.96,NNW,348,5.0,11.0,43,0.00,,,0.00,HR-IXPWINDi_r2_v1.2.,2013-02-24 17:12:00,
2013-02-24 12:17:00,51.0,29.8,29.96,NNE,30,2.0,11.0,44,0.00,,,0.00,HR-IXPWINDi_r2_v1.2.,2013-02-24 17:17:00,
2013-02-24 12:22:00,51.2,28.9,29.96,NNW,338,4.0,7.0,42,0.00,,,0.00,HR-IXPWINDi_r2_v1.2.,2013-02-24 17:22:00,
2013-02-24 12:27:00,51.0,29.3,29.96,NW,309,3.0,11.0,43,0.00,,,0.00,HR-IXPWINDi_r2_v1.2.,2013-02-24 17:27:00,
2013-02-24 12:32:00,51.4,28.5,29.96,ENE,63,2.0,11.0,41,0.00,,,0.00,HR-IXPWINDi_r2_v1.2.,2013-02-24 17:32:00,
2013-02-24 12:37:00,51.3,28.4,29.96,NNW,327,3.0,13.0,41,0.00,,,0.00,HR-IXPWINDi_r2_v1.2.,2013-02-24 17:37:00,
2013-02-24 12:43:00,51.9,27.7,29.96,WNW,290,3.0,13.0,39,0.00,,,0.00,HR-IXPWINDi_r2_v1.2.,2013-02-24 17:43:00,
2013-02-24 12:48:00,51.8,28.2,29.96,WNW,293,6.0,11.0,40,0.00,,,0.00,HR-IXPWINDi_r2_v1.2.,2013-02-24 17:48:00,
2013-02-24 12:53:00,51.8,28.8,29.95,NW,321,4.0,8.0,41,0.00,,,0.00,HR-IXPWINDi_r2_v1.2.,2013-02-24 17:53:00,
2013-02-24 12:58:00,52.2,28.6,29.95,NW,324,6.0,8.0,40,0.00,,,0.00,HR-IXPWINDi_r2_v1.2.,2013-02-24 17:58:00,
2013-02-24 13:03:00,52.4,28.1,29.95,NW,312,6.0,9.0,39,0.00,,,0.00,HR-IXPWINDi_r2_v1.2.,2013-02-24 18:03:00,
2013-02-24 13:09:00,52.2,29.2,29.95,WNW,300,3.0,9.0,41,0.00,,,0.00,HR-IXPWINDi_r2_v1.2.,2013-02-24 18:09:00,
2013-02-24 13:14:00,52.2,29.2,29.94,North,5,4.0,8.0,41,0.00,,,0.00,HR-IXPWINDi_r2_v1.2.,2013-02-24 18:14:00,
2013-02-24 13:19:00,52.6,28.9,29.94,WNW,297,6.0,13.0,40,0.00,,,0.00,HR-IXPWINDi_r2_v1.2.,2013-02-24 18:19:00,
2013-02-24 13:24:00,52.6,28.3,29.94,NNW,344,1.0,13.0,39,0.00,,,0.00,HR-IXPWINDi_r2_v1.2.,2013-02-24 18:24:00,
2013-02-24 13:30:00,52.9,30.4,29.94,WNW,301,0.0,12.0,42,0.00,,,0.00,HR-IXPWINDi_r2_v1.2.,2013-02-24 18:30:00,
2013-02-24 13:35:00,53.6,29.2,29.94,ENE,77,4.0,6.0,39,0.00,,,0.00,HR-IXPWINDi_r2_v1.2.,2013-02-24 18:35:00,
2013-02-24 13:40:00,53.4,28.4,29.94,NW,323,4.0,6.0,38,0.00,,,0.00,HR-IXPWINDi_r2_v1.2.,2013-02-24 18:40:00,
2013-02-24 13:45:00,53.4,28.4,29.94,North,350,8.0,8.0,38,0.00,,,0.00,HR-IXPWINDi_r2_v1.2.,2013-02-24 18:45:00,
2013-02-24 13:51:00,53.0,28.1,29.94,North,355,2.0,9.0,38,0.00,,,0.00,HR-IXPWINDi_r2_v1.2.,2013-02-24 18:51:00,
2013-02-24 13:56:00,53.2,28.2,29.94,NW,309,1.0,9.0,38,0.00,,,0.00,HR-IXPWINDi_r2_v1.2.,2013-02-24 18:56:00,
2013-02-24 14:01:00,53.6,29.8,29.94,NNW,336,1.0,8.0,40,0.00,,,0.00,HR-IXPWINDi_r2_v1.2.,2013-02-24 19:01:00,
2013-02-24 14:06:00,54.1,28.4,29.94,NNE,17,4.0,10.0,37,0.00,,,0.00,HR-IXPWINDi_r2_v1.2.,2013-02-24 19:06:00,
2013-02-24 14:11:00,53.7,27.4,29.94,NNW,347,2.0,13.0,36,0.00,,,0.00,HR-IXPWINDi_r2_v1.2.,2013-02-24 19:11:00,
2013-02-24 14:16:00,53.9,28.2,29.93,West,268,4.0,13.0,37,0.00,,,0.00,HR-IXPWINDi_r2_v1.2.,2013-02-24 19:16:00,
2013-02-24 14:21:00,53.8,27.5,29.93,NNW,344,4.0,9.0,36,0.00,,,0.00,HR-IXPWINDi_r2_v1.2.,2013-02-24 19:21:00,
2013-02-24 14:27:00,54.0,28.3,29.94,SSE,163,2.0,8.0,37,0.00,,,0.00,HR-IXPWINDi_r2_v1.2.,2013-02-24 19:27:00,
2013-02-24 14:32:00,54.2,28.5,29.93,NW,322,2.0,6.0,37,0.00,,,0.00,HR-IXPWINDi_r2_v1.2.,2013-02-24 19:32:00,
2013-02-24 14:37:00,54.5,28.7,29.94,NNE,19,3.0,6.0,37,0.00,,,0.00,HR-IXPWINDi_r2_v1.2.,2013-02-24 19:37:00,
2013-02-24 14:42:00,54.1,27.7,29.94,NNW,336,2.0,8.0,36,0.00,,,0.00,HR-IXPWINDi_r2_v1.2.,2013-02-24 19:42:00,
2013-02-24 14:47:00,54.0,27.6,29.94,NNE,15,2.0,8.0,36,0.00,,,0.00,HR-IXPWINDi_r2_v1.2.,2013-02-24 19:47:00,
2013-02-24 14:53:00,53.8,28.1,29.94,ENE,66,8.0,10.0,37,0.00,,,0.00,HR-IXPWINDi_r2_v1.2.,2013-02-24 19:53:00,
2013-02-24 14:58:00,53.3,27.0,29.94,NNW,339,4.0,10.0,36,0.00,,,0.00,HR-IXPWINDi_r2_v1.2.,2013-02-24 19:58:00,
2013-02-24 15:03:00,53.4,26.4,29.94,NNE,16,7.0,10.0,35,0.00,,,0.00,HR-IXPWINDi_r2_v1.2.,2013-02-24 20:03:00,
2013-02-24 15:08:00,53.2,26.9,29.94,NW,325,1.0,10.0,36,0.00,,,0.00,HR-IXPWINDi_r2_v1.2.,2013-02-24 20:08:00,
2013-02-24 15:14:00,53.3,27.0,29.94,NNW,335,2.0,8.0,36,0.00,,,0.00,HR-IXPWINDi_r2_v1.2.,2013-02-24 20:14:00,
2013-02-24 15:19:00,53.5,26.5,29.94,North,9,2.0,8.0,35,0.00,,,0.00,HR-IXPWINDi_r2_v1.2.,2013-02-24 20:19:00,
2013-02-24 15:24:00,53.5,25.8,29.94,NNW,330,5.0,8.0,34,0.00,,,0.00,HR-IXPWINDi_r2_v1.2.,2013-02-24 20:24:00,
2013-02-24 15:29:00,53.6,25.9,29.95,NE,42,4.0,7.0,34,0.00,,,0.00,HR-IXPWINDi_r2_v1.2.,2013-02-24 20:29:00,
2013-02-24 15:34:00,53.7,26.0,29.95,North,350,1.0,7.0,34,0.00,,,0.00,HR-IXPWINDi_r2_v1.2.,2013-02-24 20:34:00,
2013-02-24 15:39:00,53.9,25.4,29.95,North,360,5.0,7.0,33,0.00,,,0.00,HR-IXPWINDi_r2_v1.2.,2013-02-24 20:39:00,
2013-02-24 15:45:00,53.8,25.4,29.95,NNE,25,4.0,9.0,33,0.00,,,0.00,HR-IXPWINDi_r2_v1.2.,2013-02-24 20:45:00,
2013-02-24 15:50:00,53.6,25.9,29.95,North,355,6.0,9.0,34,0.00,,,0.00,HR-IXPWINDi_r2_v1.2.,2013-02-24 20:50:00,
2013-02-24 15:55:00,53.6,25.2,29.95,WNW,284,2.0,9.0,33,0.00,,,0.00,HR-IXPWINDi_r2_v1.2.,2013-02-24 20:55:00,
2013-02-24 16:00:00,53.7,24.5,29.95,NNW,343,5.0,9.0,32,0.00,,,0.00,HR-IXPWINDi_r2_v1.2.,2013-02-24 21:00:00,
2013-02-24 16:05:00,53.6,24.4,29.95,North,355,4.0,9.0,32,0.00,,,0.00,HR-IXPWINDi_r2_v1.2.,2013-02-24 21:05:00,
2013-02-24 16:10:00,53.3,24.9,29.95,NNW,338,5.0,11.0,33,0.00,,,0.00,HR-IXPWINDi_r2_v1.2.,2013-02-24 21:10:00,
2013-02-24 16:16:00,53.3,24.9,29.95,WNW,293,2.0,11.0,33,0.00,,,0.00,HR-IXPWINDi_r2_v1.2.,2013-02-24 21:16:00,
2013-02-24 16:21:00,53.2,24.1,29.95,NNE,17,5.0,8.0,32,0.00,,,0.00,HR-IXPWINDi_r2_v1.2.,2013-02-24 21:21:00,
2013-02-24 16:26:00,53.0,23.9,29.95,NNE,28,5.0,7.0,32,0.00,,,0.00,HR-IXPWINDi_r2_v1.2.,2013-02-24 21:26:00,
2013-02-24 16:31:00,52.7,23.7,29.96,NNE,32,4.0,14.0,32,0.00,,,0.00,HR-IXPWINDi_r2_v1.2.,2013-02-24 21:31:00,
2013-02-24 16:36:00,52.5,23.5,29.95,NE,52,5.0,14.0,32,0.00,,,0.00,HR-IXPWINDi_r2_v1.2.,2013-02-24 21:36:00,
2013-02-24 16:41:00,52.4,23.4,29.96,NW,315,4.0,9.0,32,0.00,,,0.00,HR-IXPWINDi_r2_v1.2.,2013-02-24 21:41:00,
2013-02-24 16:46:00,52.2,23.2,29.96,NW,313,8.0,19.0,32,0.00,,,0.00,HR-IXPWINDi_r2_v1.2.,2013-02-24 21:46:00,
2013-02-24 16:52:00,52.0,23.8,29.96,NW,322,1.0,19.0,33,0.00,,,0.00,HR-IXPWINDi_r2_v1.2.,2013-02-24 21:52:00,
2013-02-24 16:57:00,51.9,23.7,29.96,NNW,347,2.0,12.0,33,0.00,,,0.00,HR-IXPWINDi_r2_v1.2.,2013-02-24 21:57:00,
2013-02-24 17:02:00,51.8,23.6,29.97,NE,34,6.0,6.0,33,0.00,,,0.00,HR-IXPWINDi_r2_v1.2.,2013-02-24 22:02:00,
2013-02-24 17:07:00,51.6,23.4,29.97,NNW,348,6.0,9.0,33,0.00,,,0.00,HR-IXPWINDi_r2_v1.2.,2013-02-24 22:07:00,
2013-02-24 17:12:00,51.4,22.5,29.97,North,349,5.0,9.0,32,0.00,,,0.00,HR-IXPWINDi_r2_v1.2.,2013-02-24 22:12:00,
2013-02-24 17:18:00,51.2,23.8,29.97,NNW,331,5.0,9.0,34,0.00,,,0.00,HR-IXPWINDi_r2_v1.2.,2013-02-24 22:18:00,
2013-02-24 17:23:00,50.9,23.5,29.98,NW,304,2.0,9.0,34,0.00,,,0.00,HR-IXPWINDi_r2_v1.2.,2013-02-24 22:23:00,
2013-02-24 17:28:00,50.6,23.3,29.98,North,5,2.0,8.0,34,0.00,,,0.00,HR-IXPWINDi_r2_v1.2.,2013-02-24 22:28:00,
2013-02-24 17:33:00,50.5,23.2,29.98,NW,317,4.0,8.0,34,0.00,,,0.00,HR-IXPWINDi_r2_v1.2.,2013-02-24 22:33:00,
2013-02-24 17:38:00,50.3,23.0,29.98,NNW,336,6.0,8.0,34,0.00,,,0.00,HR-IXPWINDi_r2_v1.2.,2013-02-24 22:38:00,
2013-02-24 17:44:00,50.1,23.5,29.99,NNW,329,2.0,7.0,35,0.00,,,0.00,HR-IXPWINDi_r2_v1.2.,2013-02-24 22:44:00,
2013-02-24 17:49:00,49.7,23.2,29.99,NW,313,4.0,7.0,35,0.00,,,0.00,HR-IXPWINDi_r2_v1.2.,2013-02-24 22:49:00,
2013-02-24 17:54:00,49.5,23.6,29.99,East,88,3.0,6.0,36,0.00,,,0.00,HR-IXPWINDi_r2_v1.2.,2013-02-24 22:54:00,
2013-02-24 17:59:00,49.0,23.9,29.99,NNW,344,2.0,6.0,37,0.00,,,0.00,HR-IXPWINDi_r2_v1.2.,2013-02-24 22:59:00,
2013-02-24 18:05:00,48.7,22.9,29.99,NNW,334,8.0,8.0,36,0.00,,,0.00,HR-IXPWINDi_r2_v1.2.,2013-02-24 23:05:00,
2013-02-24 18:10:00,49.0,23.2,30.00,NNE,17,4.0,8.0,36,0.00,,,0.00,HR-IXPWINDi_r2_v1.2.,2013-02-24 23:10:00,
2013-02-24 18:15:00,48.7,23.6,30.00,WNW,293,2.0,8.0,37,0.00,,,0.00,HR-IXPWINDi_r2_v1.2.,2013-02-24 23:15:00,
2013-02-24 18:20:00,48.3,24.5,30.00,WNW,300,3.0,6.0,39,0.00,,,0.00,HR-IXPWINDi_r2_v1.2.,2013-02-24 23:20:00,
2013-02-24 18:25:00,48.1,24.3,30.00,NW,321,2.0,5.0,39,0.00,,,0.00,HR-IXPWINDi_r2_v1.2.,2013-02-24 23:25:00,
2013-02-24 18:31:00,47.7,23.3,30.01,WNW,303,4.0,5.0,38,0.00,,,0.00,HR-IXPWINDi_r2_v1.2.,2013-02-24 23:31:00,
2013-02-24 18:36:00,47.7,22.7,30.01,NE,50,4.0,9.0,37,0.00,,,0.00,HR-IXPWINDi_r2_v1.2.,2013-02-24 23:36:00,
2013-02-24 18:41:00,47.5,23.1,30.01,NNW,336,2.0,9.0,38,0.00,,,0.00,HR-IXPWINDi_r2_v1.2.,2013-02-24 23:41:00,
2013-02-24 18:46:00,47.6,22.6,30.01,NW,308,3.0,6.0,37,0.00,,,0.00,HR-IXPWINDi_r2_v1.2.,2013-02-24 23:46:00,
2013-02-24 18:52:00,47.6,22.6,30.02,NW,316,1.0,6.0,37,0.00,,,0.00,HR-IXPWINDi_r2_v1.2.,2013-02-24 23:52:00,
2013-02-24 18:57:00,47.4,22.4,30.02,NW,310,1.0,5.0,37,0.00,,,0.00,HR-IXPWINDi_r2_v1.2.,2013-02-24 23:57:00,
2013-02-24 19:02:00,47.1,22.2,30.02,NNE,17,3.0,5.0,37,0.00,,,0.00,HR-IXPWINDi_r2_v1.2.,2013-02-25 00:02:00,
2013-02-24 19:07:00,47.0,22.7,30.03,NNW,333,0.0,5.0,38,0.00,,,0.00,HR-IXPWINDi_r2_v1.2.,2013-02-25 00:07:00,
2013-02-24 19:12:00,46.5,22.3,30.03,NNW,333,3.0,4.0,38,0.00,,,0.00,HR-IXPWINDi_r2_v1.2.,2013-02-25 00:12:00,
2013-02-24 19:18:00,46.6,23.0,30.03,NW,321,0.0,7.0,39,0.00,,,0.00,HR-IXPWINDi_r2_v1.2.,2013-02-25 00:18:00,
2013-02-24 19:23:00,46.5,22.9,30.03,NW,313,2.0,7.0,39,0.00,,,0.00,HR-IXPWINDi_r2_v1.2.,2013-02-25 00:23:00,
2013-02-24 19:28:00,46.0,23.0,30.03,NNE,32,2.0,5.0,40,0.00,,,0.00,HR-IXPWINDi_r2_v1.2.,2013-02-25 00:28:00,
2013-02-24 19:33:00,45.9,22.9,30.04,NW,306,1.0,7.0,40,0.00,,,0.00,HR-IXPWINDi_r2_v1.2.,2013-02-25 00:33:00,
2013-02-24 19:38:00,45.4,22.5,30.03,NW,309,3.0,7.0,40,0.00,,,0.00,HR-IXPWINDi_r2_v1.2.,2013-02-25 00:38:00,
2013-02-24 19:44:00,45.2,22.3,30.04,NW,306,7.0,7.0,40,0.00,,,0.00,HR-IXPWINDi_r2_v1.2.,2013-02-25 00:44:00,
2013-02-24 19:49:00,45.6,22.7,30.04,NW,308,0.0,7.0,40,0.00,,,0.00,HR-IXPWINDi_r2_v1.2.,2013-02-25 00:49:00,
2013-02-24 19:54:00,45.7,22.8,30.04,NE,38,1.0,7.0,40,0.00,,,0.00,HR-IXPWINDi_r2_v1.2.,2013-02-25 00:54:00,
2013-02-24 19:59:00,45.6,23.2,30.04,NNW,333,0.0,6.0,41,0.00,,,0.00,HR-IXPWINDi_r2_v1.2.,2013-02-25 00:59:00,
2013-02-24 20:04:00,45.2,22.9,30.04,ENE,61,3.0,6.0,41,0.00,,,0.00,HR-IXPWINDi_r2_v1.2.,2013-02-25 01:04:00,
2013-02-24 20:09:00,45.3,23.6,30.05,NW,304,0.0,6.0,42,0.00,,,0.00,HR-IXPWINDi_r2_v1.2.,2013-02-25 01:09:00,
2013-02-24 20:15:00,45.1,22.8,30.05,NW,325,0.0,5.0,41,0.00,,,0.00,HR-IXPWINDi_r2_v1.2.,2013-02-25 01:15:00,
2013-02-24 20:20:00,45.1,22.8,30.06,NNW,344,0.0,6.0,41,0.00,,,0.00,HR-IXPWINDi_r2_v1.2.,2013-02-25 01:20:00,
2013-02-24 20:25:00,45.1,22.8,30.06,South,169,0.0,6.0,41,0.00,,,0.00,HR-IXPWINDi_r2_v1.2.,2013-02-25 01:25:00,
2013-02-24 20:30:00,44.9,23.2,30.06,NNW,335,2.0,3.0,42,0.00,,,0.00,HR-IXPWINDi_r2_v1.2.,2013-02-25 01:30:00,
2013-02-24 20:36:00,44.8,22.5,30.06,WNW,296,0.0,3.0,41,0.00,,,0.00,HR-IXPWINDi_r2_v1.2.,2013-02-25 01:36:00,
2013-02-24 20:41:00,44.7,23.0,30.07,NNW,346,0.0,3.0,42,0.00,,,0.00,HR-IXPWINDi_r2_v1.2.,2013-02-25 01:41:00,
2013-02-24 20:46:00,44.2,23.1,30.07,ENE,73,1.0,3.0,43,0.00,,,0.00,HR-IXPWINDi_r2_v1.2.,2013-02-25 01:46:00,
2013-02-24 20:51:00,43.5,23.6,30.07,NNW,332,0.0,3.0,45,0.00,,,0.00,HR-IXPWINDi_r2_v1.2.,2013-02-25 01:51:00,
2013-02-24 20:56:00,42.8,24.0,30.07,NNW,332,0.0,2.0,47,0.00,,,0.00,HR-IXPWINDi_r2_v1.2.,2013-02-25 01:56:00,
2013-02-24 21:02:00,42.1,23.8,30.07,NNW,332,0.0,2.0,48,0.00,,,0.00,HR-IXPWINDi_r2_v1.2.,2013-02-25 02:02:00,
2013-02-24 21:07:00,41.6,23.8,30.07,NE,38,4.0,6.0,49,0.00,,,0.00,HR-IXPWINDi_r2_v1.2.,2013-02-25 02:07:00,
2013-02-24 21:12:00,41.8,24.0,30.07,WNW,300,0.0,6.0,49,0.00,,,0.00,HR-IXPWINDi_r2_v1.2.,2013-02-25 02:12:00,
2013-02-24 21:17:00,41.4,24.1,30.08,WNW,300,0.0,4.0,50,0.00,,,0.00,HR-IXPWINDi_r2_v1.2.,2013-02-25 02:17:00,
2013-02-24 21:23:00,41.1,23.4,30.08,WNW,302,0.0,2.0,49,0.00,,,0.00,HR-IXPWINDi_r2_v1.2.,2013-02-25 02:23:00,
2013-02-24 21:28:00,41.2,23.5,30.08,WNW,302,0.0,2.0,49,0.00,,,0.00,HR-IXPWINDi_r2_v1.2.,2013-02-25 02:28:00,
2013-02-24 21:33:00,41.2,23.0,30.08,WNW,302,0.0,0.0,48,0.00,,,0.00,HR-IXPWINDi_r2_v1.2.,2013-02-25 02:33:00,
2013-02-24 21:38:00,41.5,23.8,30.09,NNW,338,1.0,2.0,49,0.00,,,0.00,HR-IXPWINDi_r2_v1.2.,2013-02-25 02:38:00,
2013-02-24 21:44:00,41.7,23.9,30.09,SSE,159,1.0,2.0,49,0.00,,,0.00,HR-IXPWINDi_r2_v1.2.,2013-02-25 02:44:00,
2013-02-24 21:49:00,41.5,23.8,30.09,SSE,163,0.0,2.0,49,0.00,,,0.00,HR-IXPWINDi_r2_v1.2.,2013-02-25 02:49:00,
2013-02-24 21:54:00,41.4,23.7,30.09,SSE,163,0.0,1.0,49,0.00,,,0.00,HR-IXPWINDi_r2_v1.2.,2013-02-25 02:54:00,
2013-02-24 21:59:00,41.1,23.9,30.09,SSE,163,0.0,1.0,50,0.00,,,0.00,HR-IXPWINDi_r2_v1.2.,2013-02-25 02:59:00,
2013-02-24 22:05:00,40.8,24.1,30.09,SSE,163,0.0,1.0,51,0.00,,,0.00,HR-IXPWINDi_r2_v1.2.,2013-02-25 03:05:00,
2013-02-24 22:10:00,40.4,24.6,30.09,SSE,163,0.0,1.0,53,0.00,,,0.00,HR-IXPWINDi_r2_v1.2.,2013-02-25 03:10:00,
2013-02-24 22:15:00,39.6,23.9,30.09,South,176,0.0,1.0,53,0.00,,,0.00,HR-IXPWINDi_r2_v1.2.,2013-02-25 03:15:00,
2013-02-24 22:20:00,39.4,23.7,30.09,South,176,0.0,2.0,53,0.00,,,0.00,HR-IXPWINDi_r2_v1.2.,2013-02-25 03:20:00,
2013-02-24 22:26:00,39.3,23.6,30.09,South,176,0.0,2.0,53,0.00,,,0.00,HR-IXPWINDi_r2_v1.2.,2013-02-25 03:26:00,
2013-02-24 22:31:00,39.4,24.6,30.10,NNE,26,2.0,4.0,55,0.00,,,0.00,HR-IXPWINDi_r2_v1.2.,2013-02-25 03:31:00,
2013-02-24 22:36:00,39.9,23.7,30.09,West,277,1.0,5.0,52,0.00,,,0.00,HR-IXPWINDi_r2_v1.2.,2013-02-25 03:36:00,
2013-02-24 22:41:00,40.0,23.8,30.09,NW,309,0.0,5.0,52,0.00,,,0.00,HR-IXPWINDi_r2_v1.2.,2013-02-25 03:41:00,
2013-02-24 22:47:00,39.6,23.9,30.09,South,191,0.0,3.0,53,0.00,,,0.00,HR-IXPWINDi_r2_v1.2.,2013-02-25 03:47:00,
2013-02-24 22:52:00,39.3,23.6,30.09,South,191,0.0,3.0,53,0.00,,,0.00,HR-IXPWINDi_r2_v1.2.,2013-02-25 03:52:00,
2013-02-24 22:57:00,39.1,23.9,30.09,WSW,246,0.0,2.0,54,0.00,,,0.00,HR-IXPWINDi_r2_v1.2.,2013-02-25 03:57:00,
2013-02-24 23:02:00,39.2,23.9,30.09,NE,41,0.0,3.0,54,0.00,,,0.00,HR-IXPWINDi_r2_v1.2.,2013-02-25 04:02:00,
2013-02-24 23:07:00,39.3,24.0,30.09,WSW,244,0.0,3.0,54,0.00,,,0.00,HR-IXPWINDi_r2_v1.2.,2013-02-25 04:07:00,
2013-02-24 23:12:00,39.2,23.9,30.09,West,264,0.0,2.0,54,0.00,,,0.00,HR-IXPWINDi_r2_v1.2.,2013-02-25 04:12:00,
2013-02-24 23:17:00,39.1,23.9,30.09,SW,215,0.0,1.0,54,0.00,,,0.00,HR-IXPWINDi_r2_v1.2.,2013-02-25 04:17:00,
2013-02-24 23:23:00,38.9,24.5,30.10,South,182,2.0,4.0,56,0.00,,,0.00,HR-IXPWINDi_r2_v1.2.,2013-02-25 04:23:00,
2013-02-24 23:28:00,38.5,24.6,30.10,SE,134,1.0,4.0,57,0.00,,,0.00,HR-IXPWINDi_r2_v1.2.,2013-02-25 04:28:00,
2013-02-24 23:33:00,38.0,25.3,30.10,SE,140,0.0,2.0,60,0.00,,,0.00,HR-IXPWINDi_r2_v1.2.,2013-02-25 04:33:00,
2013-02-24 23:38:00,37.4,24.8,30.10,SE,140,0.0,1.0,60,0.00,,,0.00,HR-IXPWINDi_r2_v1.2.,2013-02-25 04:38:00,
2013-02-24 23:43:00,37.0,24.0,30.10,SE,140,0.0,1.0,59,0.00,,,0.00,HR-IXPWINDi_r2_v1.2.,2013-02-25 04:43:00,
2013-02-24 23:49:00,36.4,25.4,30.10,SE,140,0.0,2.0,64,0.00,,,0.00,HR-IXPWINDi_r2_v1.2.,2013-02-25 04:49:00,
2013-02-24 23:54:00,35.9,24.1,30.11,NW,306,2.0,3.0,62,0.00,,,0.00,HR-IXPWINDi_r2_v1.2.,2013-02-25 04:54:00,
2013-02-24 23:59:00,35.6,25.0,30.11,NW,304,0.0,3.0,65,0.00,,,0.00,HR-IXPWINDi_r2_v1.2.,2013-02-25 04:59:00,